Zurück zum Katalog

COSMOS 1375 DEB

AktivLEO
NORAD 17103·DEBRIS·🇷🇺 Russia

Gestartet Jun 6, 1982 von Plesetsk Cosmodrome

Loading…

Nächste Überflüge (nächste 24 Stunden)

TLE

AktuellSource: Space-Track

Epoche: Sep 14, 2026, 00:29 UTC

1 17103U 82055AE  26257.02059766  .00000128  00000-0  20808-3 0  9991
2 17103  65.8267 275.5845 0031070 312.9891  71.5709 13.77739556 50612

Verfolge COSMOS 1375 DEB in Echtzeit mit AllMySat

Download on the App Store